Regional Weather Roundup
Issued by NWS

Home | Current Version | Previous Version | Text Only | Print | Product List | Glossary Off
Versions: 1 2 3 4 5 6 7 8 9 10 11 12 13 14 15 16 17 18 19 20 21 22 23 24 25 26 27

000
ASUS45 KSLC 240910
RWRUT

UTAH REGIONAL WEATHER ROUNDUP
NATIONAL WEATHER SERVICE SALT LAKE CITY UT
300 AM MDT FRI MAR 24 2017

UTZ001>011-023>025-241000-

NORTHERN UTAH

CITY           SKY/WX    TMP DP  RH WIND       PRES   REMARKS
BRIGHAM CITY     N/A     35  32  87 CALM      30.16S
HILL AFB       CLEAR     36  31  81 SE3       30.15R
LOGAN          CLEAR     35  32  88 CALM      30.16R
OGDEN          CLEAR     32  31  96 S8        30.15R WCI  25
SALT LAKE CITY CLEAR     35  34  96 SE6       30.16R WCI  30
WENDOVER       CLEAR     43  23  45 E7        30.16R
HEBER CITY     CLOUDY    37  34  87 CALM      30.14R

$$

UTZ011>015-024>027-241000-

CENTRAL/NORTHEAST UTAH

CITY           SKY/WX    TMP DP  RH WIND       PRES   REMARKS
PROVO AIRPORT  CLEAR     43  36  76 SW12      30.18R
MOAB/CANYONLAN CLOUDY    47  31  53 W15       29.98R
DELTA          CLEAR     32  32 100 S8        30.19R WCI  25
PRICE          PTCLDY    42  27  55 NW29G43   30.01R
ROOSEVELT      CLOUDY    41  34  75 W5        30.07R
VERNAL         CLOUDY    44  33  65 NE10      30.05R

$$

UTZ013>016-019>022-027-241000-

SOUTHERN UTAH

CITY           SKY/WX    TMP DP  RH WIND       PRES   REMARKS
BRYCE CANYON   CLEAR     29  23  78 NW16G26   30.13S WCI  17
CEDAR CITY     CLEAR     27  24  89 N5        30.18R WCI  22
MILFORD        CLEAR    N/A N/A N/A SW6       30.19R
ST GEORGE      PTSUNNY   43  37  79 SE5       30.17R
HANKSVILLE     MOCLDY    45  30  57 NW7       30.06R
BLANDING       PTCLDY    41  27  57 NW21G29   30.02R

$$

REGIONAL REPORTS     COLORADO/ARIZONA

CITY           SKY/WX    TMP DP  RH WIND       PRES   REMARKS
CRAIG, CO      CLOUDY    37  29  72 MISG      29.97R
GRAND JUNCTION MOCLDY    43  36  76 N14       29.95R
RIFLE, CO      CLOUDY    45  35  68 W16       29.92R
MONTROSE, CO   CLOUDY    43  35  73 NW21G31   29.91R
CORTEZ, CO     CLOUDY    39  34  82 NW10      29.93R WCI  32
COLORADO CITY    N/A     34  32  93 S3        30.20R
PAGE, AZ       CLEAR     49 N/A N/A W12G18    30.06R
GRAND CANYON   CLEAR     33  29  85 VRB3      30.15S
KINGMAN, AZ    CLEAR     42  31  64 SE9       30.15S
FLAGSTAFF, AZ  CLEAR     34  25  69 W9        30.13R WCI  27

$$

REGIONAL REPORTS    NEVADA/IDAHO/WYOMING

CITY           SKY/WX    TMP DP  RH WIND       PRES   REMARKS
LAS VEGAS, NV  CLEAR     56  34  43 SW5       30.12R
ELY, NY        CLEAR     27  22  81 S9        30.20F WCI  18
ELKO, NV       CLEAR     31  26  82 CALM      30.15S
POCATELLO, ID  CLEAR     37  25  61 S9        30.14R WCI  30
BURLEY, ID     CLEAR     36  25  64 SW13      30.11R WCI  27
FORT BRIDGER,  CLOUDY    35  33  93 W12       30.14R WCI  26
EVANSTON, WY   CLOUDY    29  23  78 SW5       30.14R WCI  24
ROCK SPRINGS,  CLOUDY    37  30  75 NE7       30.09R WCI  32
KEMMERER, WY     N/A     32  27  80 W8        30.11R WCI  25

$$




USA.gov is the U.S. government's official web portal to all federal, state and local government web resources and services.